sat.trackr.live / text

‹ back to catalog

STARLINK-36237

NORAD 68337 · 2026-059S

PAYLOAD ACTIVE UNKNOWN

§ Identity

Operator
Country
US
Launch date
2026-03-22
Launch site
AFETR
Launch vehicle
Mass (kg)
RCS (m²)

Purposes: comms

External: N2YO · Heavens-Above · Gunter

§ Orbital elements

Epoch: 2026-05-25T00:00:02.000160Z

Period
93.79 min
Inclination
53.1606°
Eccentricity
0.0000624
Mean motion
15.35365234 rev/d
Perigee alt
459.4 km
Apogee alt
460.3 km
Semi-major
6,838.0 km
B*
1.9121e-3
RAAN
349.5908°
Arg perigee
74.8933°
Mean anomaly
90.5441°
Rev number
589

§ Raw data

STARLINK-362371 68337U 26059S   26145.00002315  .00066836  00000+0  19121-2 0  99922 68337  53.1606 349.5908 0000624  74.8933  90.5441 15.35365234  5896

JSON: /api/v1/satellites/68337 · /tle

For live sub-satellite position, see the globe view (requires WebGL).

§ Visibility from observer

Set your observer location to see the next 7 days of passes ≥ 10°. The values pass through the URL so the page stays shareable.

No JS? Fill the form by hand. The geolocation button needs JavaScript.